Weather History for KADC - July, 2013

Change the Weather History Date:

Saturday, July 6, 2013

  Actual Average Record
Temperature  
Mean Temperature 68 °F -  
Max Temperature 73 °F 80 °F 106 °F (1936)
Min Temperature 62 °F 57 °F 41 °F (1942)
Cooling Degree Days 2    
Growing Degree Days 18 (Base 50)    
Moisture  
Dew Point 64 °F    
Average Humidity 86    
Maximum Humidity 94    
Minimum Humidity 78    
Precipitation  
Precipitation 0.04 in - - ()
Sea Level Pressure  
Sea Level Pressure 29.83 in    
Wind  
Wind Speed 2 mph (SE)    
Max Wind Speed 9 mph    
Max Gust Speed -    
Visibility 8 miles    
Events Rain    
Averages and records for this station are not official NWS values.
T = Trace of Precipitation, MM = Missing Value Source: NWS Daily Summary

Daily Weather History Graph

Daily Weather History Graph

Search for Another Location

Airport or City:

Trip Planner

Search our weather history database for the weather conditions in past years. The results will help you decide how hot, cold, wet, or windy it might be!

Date:

Astronomy

Jul. 06, 2013 Rise Set
Actual Time 5:35 AM CDT 9:15 PM CDT
Civil Twilight 4:57 AM CDT 9:53 PM CDT
Nautical Twilight 4:05 AM CDT 10:45 PM CDT
Astronomical Twilight 2:54 AM CDT 11:55 PM CDT
Moon 4:25 AM CDT (7/6) 7:53 PM CDT (7/6)
Length of Visible Light 16h 56m
Length of Day
15h 39m
Waning Crescent, 2% of the Moon is Illuminated
Jul 6
Waning Crescent
Jul 8
New
Jul 15
First Quarter
Jul 22
Full
Jul 29
Last Quarter

Hourly Weather History & Observations

Time (CDT) Temp. Dew Point Humidity Pressure Visibility Wind Dir Wind Speed Gust Speed Precip Events Conditions
12:15 AM 64.4 °F 60.8 °F 88% 29.81 in 10.0 mi Calm Calm - N/A   Clear
12:35 AM 64.4 °F 60.8 °F 88% 29.81 in 10.0 mi Calm Calm - N/A   Clear
12:53 AM 64.4 °F 60.8 °F 88% 29.81 in 10.0 mi Calm Calm - N/A   Clear
1:15 AM 64.4 °F 60.8 °F 88% 29.81 in 10.0 mi Calm Calm - N/A   Clear
1:35 AM 62.6 °F 60.8 °F 94% 29.81 in 10.0 mi Calm Calm - N/A   Clear
1:53 AM 62.6 °F 60.8 °F 94% 29.81 in 7.0 mi Calm Calm - N/A   Clear
2:15 AM 62.6 °F 60.8 °F 94% 29.81 in 10.0 mi Calm Calm - N/A   Clear
2:35 AM 62.6 °F 60.8 °F 94% 29.81 in 10.0 mi Calm Calm - N/A   Clear
2:52 AM 64.4 °F 60.8 °F 88% 29.81 in 10.0 mi Calm Calm - N/A   Clear
3:14 AM 62.6 °F 60.8 °F 94% 29.81 in 10.0 mi Calm Calm - N/A   Clear
3:35 AM 62.6 °F 60.8 °F 94% 29.80 in 10.0 mi Calm Calm - N/A   Clear
3:53 AM 64.4 °F 60.8 °F 88% 29.80 in 10.0 mi Calm Calm - N/A   Clear
4:15 AM 62.6 °F 59.0 °F 88% 29.81 in 10.0 mi Calm Calm - N/A   Clear
4:35 AM 64.4 °F 60.8 °F 88% 29.80 in 10.0 mi Calm Calm - N/A   Clear
4:52 AM 62.6 °F 59.0 °F 88% 29.80 in 10.0 mi Calm Calm - N/A   Clear
5:15 AM 62.6 °F 59.0 °F 88% 29.80 in 10.0 mi Calm Calm - N/A   Clear
5:35 AM 64.4 °F 60.8 °F 88% 29.81 in 10.0 mi Calm Calm - N/A   Clear
5:53 AM 64.4 °F 60.8 °F 88% 29.81 in 10.0 mi Calm Calm - N/A   Scattered Clouds
6:15 AM 64.4 °F 62.6 °F 94% 29.80 in 7.0 mi ESE 3.5 mph - N/A   Mostly Cloudy
6:35 AM 66.2 °F 62.6 °F 88% 29.81 in 7.0 mi South 3.5 mph - N/A   Overcast
6:52 AM 66.2 °F 62.6 °F 88% 29.81 in 7.0 mi South 4.6 mph - N/A   Overcast
7:14 AM 66.2 °F 62.6 °F 88% 29.81 in 7.0 mi South 3.5 mph - N/A   Overcast
7:35 AM 68.0 °F 62.6 °F 83% 29.82 in 10.0 mi South 4.6 mph - N/A   Scattered Clouds
7:53 AM 68.0 °F 62.6 °F 83% 29.81 in 10.0 mi South 5.8 mph - N/A   Mostly Cloudy
8:15 AM 68.0 °F 62.6 °F 83% 29.82 in 7.0 mi South 6.9 mph - N/A Rain Light Rain
8:35 AM 68.0 °F 64.4 °F 88% 29.84 in 7.0 mi SW 5.8 mph - N/A Rain Light Rain
8:53 AM 68.0 °F 64.4 °F 88% 29.84 in 10.0 mi SW 6.9 mph - N/A   Scattered Clouds
9:15 AM 68.0 °F 64.4 °F 88% 29.84 in 7.0 mi SW 4.6 mph - N/A Rain Light Rain
9:35 AM 68.0 °F 64.4 °F 88% 29.84 in 7.0 mi WSW 3.5 mph - 0.01 in Rain Rain
9:52 AM 68.0 °F 64.4 °F 88% 29.83 in 7.0 mi Calm Calm - 0.01 in Rain Light Rain
10:14 AM 68.0 °F 64.4 °F 88% 29.82 in 7.0 mi Calm Calm - 0.01 in Rain Light Rain
10:35 AM 68.0 °F 64.4 °F 88% 29.82 in 7.0 mi Calm Calm - 0.02 in Rain Light Rain
10:53 AM 68.0 °F 66.2 °F 94% 29.82 in 5.0 mi Calm Calm - 0.02 in Rain Light Rain
11:15 AM 68.0 °F 66.2 °F 94% 29.84 in 5.0 mi South 4.6 mph - N/A Rain Light Rain
11:35 AM 69.8 °F 66.2 °F 88% 29.84 in 7.0 mi SSE 4.6 mph - 0.01 in Rain Light Rain
11:52 AM 69.8 °F 66.2 °F 88% 29.84 in 7.0 mi SE 4.6 mph - 0.01 in   Scattered Clouds
12:15 PM 69.8 °F 66.2 °F 88% 29.84 in 7.0 mi ESE 5.8 mph - N/A   Clear
12:35 PM 71.6 °F 66.2 °F 83% 29.84 in 7.0 mi ESE 4.6 mph - N/A   Clear
12:53 PM 71.6 °F 66.2 °F 83% 29.84 in 7.0 mi ENE 4.6 mph - N/A   Clear
1:15 PM 71.6 °F 66.2 °F 83% 29.84 in 10.0 mi NE 3.5 mph - N/A Rain Light Rain
1:34 PM 71.6 °F 66.2 °F 83% 29.85 in 7.0 mi ENE 5.8 mph - N/A Rain Light Rain
1:53 PM 71.6 °F 66.2 °F 83% 29.85 in 7.0 mi ENE 3.5 mph - N/A   Scattered Clouds
2:15 PM 71.6 °F 66.2 °F 83% 29.86 in 10.0 mi East 5.8 mph - N/A   Mostly Cloudy
2:35 PM 71.6 °F 66.2 °F 83% 29.85 in 7.0 mi ESE 9.2 mph - N/A   Mostly Cloudy
2:53 PM 71.6 °F 64.4 °F 78% 29.85 in 10.0 mi ESE 6.9 mph - N/A   Scattered Clouds
3:15 PM 71.6 °F 66.2 °F 83% 29.86 in 7.0 mi ESE 6.9 mph - N/A Rain Light Rain
3:34 PM 71.6 °F 66.2 °F 83% 29.85 in 7.0 mi East 6.9 mph - N/A Rain Light Rain
3:52 PM 71.6 °F 66.2 °F 83% 29.85 in 10.0 mi ESE 8.1 mph - N/A   Scattered Clouds
4:14 PM 71.6 °F 66.2 °F 83% 29.85 in 10.0 mi SE 8.1 mph - N/A   Scattered Clouds
4:34 PM 71.6 °F 66.2 °F 83% 29.85 in 10.0 mi SE 5.8 mph - N/A   Scattered Clouds
4:53 PM 71.6 °F 66.2 °F 83% 29.84 in 10.0 mi ESE 8.1 mph - N/A   Mostly Cloudy
5:15 PM 71.6 °F 66.2 °F 83% 29.84 in 10.0 mi ESE 8.1 mph - N/A   Scattered Clouds
5:35 PM 73.4 °F 66.2 °F 78% 29.83 in 10.0 mi SE 9.2 mph - N/A   Scattered Clouds
5:53 PM 71.6 °F 64.4 °F 78% 29.82 in 10.0 mi ESE 9.2 mph - N/A   Clear
6:15 PM 71.6 °F 64.4 °F 78% 29.82 in 10.0 mi ESE 9.2 mph - N/A   Clear
6:35 PM 71.6 °F 64.4 °F 78% 29.82 in 10.0 mi Calm Calm - N/A   Scattered Clouds
6:52 PM 73.4 °F 66.2 °F 78% 29.82 in 10.0 mi ESE 4.6 mph - N/A   Mostly Cloudy
7:15 PM 73.4 °F 66.2 °F 78% 29.82 in 10.0 mi ESE 8.1 mph - N/A   Scattered Clouds
7:35 PM 71.6 °F 64.4 °F 78% 29.83 in 10.0 mi ESE 5.8 mph - N/A   Mostly Cloudy
7:52 PM 71.6 °F 66.2 °F 83% 29.83 in 10.0 mi ESE 5.8 mph - N/A Rain Light Rain
8:15 PM 71.6 °F 66.2 °F 83% 29.83 in 10.0 mi ENE 3.5 mph - N/A   Mostly Cloudy
8:35 PM 71.6 °F 66.2 °F 83% 29.83 in 7.0 mi East 3.5 mph - N/A   Mostly Cloudy
8:52 PM 69.8 °F 66.2 °F 88% 29.82 in 7.0 mi East 3.5 mph - N/A   Overcast
9:15 PM 69.8 °F 64.4 °F 83% 29.83 in 7.0 mi East 3.5 mph - N/A   Mostly Cloudy
9:35 PM 69.8 °F 64.4 °F 83% 29.83 in 7.0 mi Calm Calm - N/A   Scattered Clouds
9:53 PM 69.8 °F 64.4 °F 83% 29.84 in 7.0 mi ESE 3.5 mph - N/A   Clear
10:15 PM 68.0 °F 64.4 °F 88% 29.83 in 7.0 mi ESE 4.6 mph - N/A   Scattered Clouds
10:35 PM 66.2 °F 64.4 °F 94% 29.83 in 7.0 mi Calm Calm - N/A   Clear
10:53 PM 66.2 °F 64.4 °F 94% 29.83 in 5.0 mi Calm Calm - N/A   Clear
11:15 PM 66.2 °F 64.4 °F 94% 29.83 in 5.0 mi Calm Calm - N/A   Clear
11:34 PM 66.2 °F 64.4 °F 94% 29.83 in 4.0 mi Calm Calm - N/A   Clear
11:53 PM 64.4 °F 62.6 °F 94% 29.82 in 2.0 mi Calm Calm - N/A   Clear